D7023 Weather Reports


time (UTC)temp
C
wind
direction
speed
KPH
gust
KPH
rain 1hr
cm
rain 24hr
cm
rain mn
cm
humidity
%
barometer
mb
20260507170442 26 293 6.4 17.7 0.00 0.00 0.00 87 1008.5
20260507165942 26 350 6.4 17.7 0.00 0.00 0.00 87 1008.4
20260507165709 26 5 6.4 19.3 0.00 0.00 0.00 87 1008.5
20260507164937 26 355 6.4 19.3 0.00 0.00 0.00 86 1008.5
20260507164434 26 350 6.4 14.5 0.00 0.00 0.00 86 1008.7
20260507163936 26 7 4.8 12.9 0.00 0.00 0.00 87 1008.9
20260507163435 26 350 4.8 14.5 0.00 0.00 0.00 87 1009.0
20260507162939 26 355 4.8 14.5 0.00 0.00 0.00 87 1009.1
20260507162435 26 5 4.8 14.5 0.00 0.00 0.00 88 1009.2
20260507161937 26 350 4.8 16.1 0.00 0.00 0.00 88 1009.4
20260507161427 26 342 4.8 17.7 0.00 0.00 0.00 87 1009.4
20260507160930 26 0 6.4 17.7 0.00 0.00 0.00 89 1009.6
20260507160428 26 341 6.4 16.1 0.00 0.00 0.00 90 1009.7
20260507155923 26 338 4.8 14.5 0.00 0.00 0.00 89 1009.8
20260507155424 26 311 4.8 16.1 0.00 0.00 0.00 89 1010.0
20260507155151 26 355 6.4 16.1 0.00 0.00 0.00 89 1010.0
20260507154423 26 350 6.4 16.1 0.00 0.00 0.00 89 1010.1
20260507153922 26 6 4.8 12.9 0.00 0.00 0.00 88 1010.1
20260507153423 26 355 3.2 8.0 0.00 0.00 0.00 90 1010.2
20260507153146 26 0 3.2 17.7 0.00 0.00 0.00 90 1010.4
20260507152420 25 7 4.8 17.7 0.00 0.00 0.00 91 1010.6
20260507151915 25 346 4.8 17.7 0.00 0.00 0.00 91 1010.7
20260507151415 25 355 6.4 17.7 0.00 0.00 0.00 90 1010.8
20260507150915 25 343 4.8 12.9 0.00 0.00 0.00 91 1011.0
20260507150400 25 0 4.8 14.5 0.00 0.00 0.00 93 1011.1
20260507145900 25 350 6.4 16.1 0.00 0.00 0.00 94 1011.3
20260507145356 25 0 6.4 16.1 0.00 0.00 0.00 94 1011.4
20260507144855 24 355 4.8 16.1 0.00 0.00 0.00 94 1011.5
20260507144357 24 334 4.8 16.1 0.00 0.00 0.00 93 1011.6
20260507144113 25 12 4.8 14.5 0.00 0.00 0.00 94 1011.8
20260507143358 25 330 6.4 14.5 0.00 0.00 0.00 93 1011.9
20260507142856 25 0 4.8 14.5 0.00 0.00 0.00 92 1012.0
20260507142348 25 4 3.2 8.0 0.00 0.00 0.00 92 1012.1
20260507141845 25 345 3.2 8.0 0.00 0.00 0.00 92 1012.2
20260507141346 25 319 3.2 11.3 0.00 0.00 0.00 92 1012.3
20260507140842 25 0 3.2 11.3 0.00 0.00 0.00 92 1012.3
20260507140346 25 15 3.2 6.4 0.00 0.00 0.00 92 1012.5
20260507140112 25 345 3.2 9.7 0.00 0.00 0.00 93 1012.6
20260507135345 25 0 4.8 12.9 0.00 0.00 0.00 92 1012.7
20260507134826 25 355 4.8 12.9 0.00 0.00 0.00 92 1012.8
20260507134325 25 0 4.8 9.7 0.00 0.00 0.00 93 1012.9
20260507134040 25 8 4.8 9.7 0.00 0.00 0.00 92 1012.8
20260507133317 25 350 4.8 9.7 0.00 0.00 0.00 92 1012.9
20260507132814 25 350 4.8 16.1 0.00 0.00 0.00 92 1013.1
20260507132548 25 11 4.8 16.1 0.00 0.00 0.00 91 1013.2
20260507131814 25 10 4.8 11.3 0.00 0.00 0.00 91 1013.4
20260507131312 25 5 3.2 8.0 0.00 0.00 0.00 92 1013.4
20260507130811 24 355 3.2 9.7 0.00 0.00 0.00 92 1013.4
20260507130312 24 355 3.2 9.7 0.00 0.00 0.00 92 1013.4
20260507125813 24 6 3.2 8.0 0.00 0.00 0.00 93 1013.4
20260507125312 24 0 3.2 11.3 0.00 0.00 0.00 93 1013.5
20260507124809 24 355 3.2 11.3 0.00 0.00 0.00 93 1013.6
20260507124307 24 0 3.2 9.7 0.00 0.00 0.00 93 1013.6
20260507123809 24 17 3.2 9.7 0.00 0.00 0.00 93 1013.6
20260507123514 24 350 3.2 9.7 0.00 0.00 0.00 93 1013.6
20260507122752 24 355 4.8 9.7 0.00 0.00 0.00 94 1013.6
20260507122451 24 4 3.2 9.7 0.00 0.00 0.00 94 1013.6
20260507121657 24 4 4.8 12.9 0.00 0.00 0.00 94 1013.7
20260507121136 24 355 4.8 12.9 0.00 0.00 0.00 94 1013.6
20260507120636 24 0 3.2 8.0 0.00 0.00 0.00 94 1013.7
20260507120117 24 355 3.2 8.0 0.00 0.00 0.00 94 1013.6
20260507115620 24 12 3.2 6.4 0.00 0.00 0.00 94 1013.6
20260507115116 24 4 3.2 9.7 0.00 0.00 0.00 95 1013.6
20260507114834 24 355 3.2 9.7 0.00 0.00 0.00 94 1013.7
20260507114333 24 334 1.6 6.4 0.00 0.00 0.00 95 1013.7
20260507113612 24 330 3.2 6.4 0.00 0.00 0.00 95 1013.8
20260507113114 23 6 1.6 6.4 0.00 0.00 0.00 95 1013.7
20260507112609 23 355 1.6 6.4 0.00 0.00 0.00 96 1013.9
20260507112107 23 355 1.6 6.4 0.00 0.00 0.00 96 1013.9
20260507111606 23 340 1.6 11.3 0.00 0.00 0.00 96 1013.8
20260507111106 23 343 1.6 11.3 0.00 0.00 0.00 96 1013.9
20260507110605 23 341 1.6 8.0 0.00 0.00 0.00 97 1013.7
20260507110108 23 341 3.2 8.0 0.00 0.00 0.00 97 1013.7
20260507105539 23 350 3.2 4.8 0.00 0.00 0.00 97 1013.6
20260507105026 23 308 1.6 4.8 0.00 0.00 0.00 97 1013.6
20260507104446 23 331 0.0 1.6 0.00 0.00 0.00 97 1013.6
20260507103919 23 331 1.6 4.8 0.00 0.00 0.00 98 1013.7
20260507103353 23 331 3.2 4.8 0.00 0.00 0.00 98 1013.6
20260507102829 23 337 1.6 4.8 0.00 0.00 0.00 98 1013.5
20260507102306 23 337 0.0 4.8 0.00 0.00 0.00 99 1013.5
20260507101737 23 337 1.6 6.4 0.00 0.00 0.00 99 1013.6
20260507101432 23 336 1.6 6.4 0.00 0.00 0.00 99 1013.5
20260507100712 23 333 3.2 11.3 0.00 0.00 0.00 99 1013.5
20260507100214 23 339 1.6 11.3 0.00 0.00 0.00 100 1013.6
20260507095714 23 81 0.0 4.8 0.00 0.00 0.00 100 1013.5
20260507095213 23 83 0.0 4.8 0.00 0.00 0.00 100 1013.5
20260507094713 23 18 0.0 4.8 0.00 0.00 0.00 100 1013.6
20260507094212 23 18 0.0 3.2 0.00 0.00 0.00 100 1013.5
20260507093710 23 18 0.0 0.0 0.00 0.00 0.00 100 1013.5
20260507093210 23 18 0.0 0.0 0.00 0.00 0.00 100 1013.5
20260507092709 23 18 0.0 4.8 0.00 0.00 0.00 100 1013.5
20260507092202 23 18 0.0 4.8 0.00 0.00 0.00 100 1013.5
20260507091923 23 22 0.0 1.6 0.00 0.00 0.00 100 1013.4
20260507091204 23 22 0.0 0.0 0.00 0.00 0.00 100 1013.5
20260507090659 23 22 0.0 0.0 0.00 0.00 0.00 100 1013.4
20260507090201 23 22 0.0 3.2 0.00 0.00 0.00 100 1013.3
20260507085658 23 22 0.0 3.2 0.00 0.00 0.00 100 1013.3
20260507085153 23 0 0.0 0.0 0.00 0.00 0.00 100 1013.3
20260507084652 23 0 0.0 0.0 0.00 0.00 0.00 100 1013.3
20260507084148 23 0 0.0 0.0 0.00 0.00 0.00 100 1013.2
20260507083650 23 0 0.0 0.0 0.00 0.00 0.00 100 1013.1
20260507083145 23 0 0.0 0.0 0.00 0.00 0.00 100 1013.1
20260507082646 23 0 0.0 0.0 0.00 0.00 0.00 100 1013.1
20260507082411 23 0 0.0 0.0 0.00 0.00 0.00 100 1013.1
20260507081645 23 0 0.0 0.0 0.00 0.00 0.00 100 1013.1
20260507081145 23 0 0.0 0.0 0.00 0.00 0.00 100 1013.0
20260507080901 23 0 0.0 0.0 0.00 0.00 0.00 100 1012.9
20260507080140 23 0 0.0 0.0 0.00 0.00 0.00 100 1012.9
20260507075642 23 0 0.0 0.0 0.00 0.00 0.00 100 1012.9
20260507075142 23 0 0.0 0.0 0.00 0.00 0.00 100 1012.9
20260507074637 23 0 0.0 0.0 0.00 0.00 0.00 100 1013.0
20260507074137 23 0 0.0 0.0 0.00 0.00 0.00 100 1013.1
20260507073640 23 0 0.0 0.0 0.00 0.00 0.00 100 1013.1
20260507073358 23 0 0.0 0.0 0.00 0.00 0.00 100 1013.2
20260507072851 23 0 0.0 0.0 0.00 0.00 0.00 100 1013.3
20260507072127 23 0 0.0 0.0 0.00 0.00 0.00 100 1013.3
20260507071629 23 0 0.0 0.0 0.00 0.00 0.00 100 1013.3
20260507071330 23 0 0.0 0.0 0.00 0.00 0.00 100 1013.3
20260507070609 23 0 0.0 0.0 0.00 0.00 0.00 100 1013.4
20260507070059 23 0 0.0 0.0 0.00 0.00 0.00 100 1013.4
20260507065559 23 0 0.0 0.0 0.00 0.00 0.00 100 1013.5
20260507065308 23 0 0.0 0.0 0.00 0.00 0.00 100 1013.6
20260507065148 23 0 0.0 0.0 0.00 0.00 0.00 100 1013.5
20260507064317 23 0 0.0 0.0 0.00 0.00 0.00 100 1013.6
20260507063550 23 0 0.0 0.0 0.00 0.00 0.00 100 1013.7
20260507063308 23 0 0.0 0.0 0.00 0.00 0.00 100 1013.8
20260507062546 23 0 0.0 0.0 0.00 0.00 0.00 100 1013.8
20260507062041 23 0 0.0 1.6 0.00 0.00 0.00 99 1014.0
20260507061541 23 0 0.0 1.6 0.00 0.00 0.00 99 1014.0
20260507061040 23 0 0.0 4.8 0.00 0.00 0.00 99 1014.1
20260507060536 23 0 0.0 4.8 0.00 0.00 0.00 99 1014.1
20260507060035 23 6 0.0 3.2 0.00 0.00 0.00 99 1014.1
20260507055759 23 6 0.0 1.6 0.00 0.00 0.00 99 1014.1
20260507055033 23 6 0.0 1.6 0.00 0.00 0.00 99 1014.4
20260507054506 23 6 0.0 1.6 0.00 0.00 0.00 99 1014.4
20260507053940 23 6 0.0 4.8 0.00 0.00 0.00 99 1014.3
20260507053437 23 6 0.0 4.8 0.00 0.00 0.00 99 1014.5
20260507052919 23 6 0.0 1.6 0.00 0.00 0.00 99 1014.6
20260507052421 23 6 0.0 0.0 0.00 0.00 0.00 99 1014.5
20260507051910 23 6 0.0 0.0 0.00 0.00 0.00 99 1014.7
20260507051624 23 6 1.6 3.2 0.00 0.00 0.00 98 1014.7
20260507051507 23 6 0.0 3.2 0.00 0.00 0.00 99 1014.7
20260507051149 23 6 1.6 3.2 0.00 0.00 0.00 98 1014.7
20260507050405 23 6 1.6 4.8 0.00 0.00 0.00 98 1014.7
20260507045902 23 6 0.0 4.8 0.00 0.00 0.00 98 1014.8
20260507045400 23 6 1.6 4.8 0.00 0.00 0.00 98 1015.0
20260507044900 23 6 1.6 4.8 0.00 0.00 0.00 98 1015.0
20260507044401 23 0 0.0 4.8 0.00 0.00 0.00 98 1015.1
20260507044125 23 350 0.0 3.2 0.00 0.00 0.00 98 1015.2
20260507043355 23 350 1.6 3.2 0.00 0.00 0.00 98 1015.1
20260507042851 23 350 1.6 9.7 0.00 0.00 0.00 98 1015.2
20260507042354 23 350 1.6 9.7 0.00 0.00 0.00 98 1015.2
20260507041839 23 0 0.0 3.2 0.00 0.00 0.00 98 1015.3
20260507041340 23 0 0.0 3.2 0.00 0.00 0.00 98 1015.2
20260507041306 23 0 0.0 4.8 0.00 0.00 0.00 98 1015.3
20260507040933 23 0 0.0 1.6 0.00 0.00 0.00 98 1015.3
20260507035834 23 0 1.6 6.4 0.00 0.00 0.00 98 1015.3
20260507035334 23 0 0.0 6.4 0.00 0.00 0.00 98 1015.4
20260507034832 23 0 0.0 3.2 0.00 0.00 0.00 98 1015.4
20260507034332 23 0 0.0 4.8 0.00 0.00 0.00 98 1015.3
20260507033826 23 0 0.0 4.8 0.00 0.00 0.00 98 1015.5
20260507033327 23 0 0.0 3.2 0.00 0.00 0.00 98 1015.5
20260507032824 23 0 0.0 3.2 0.00 0.00 0.00 98 1015.6
20260507032330 23 0 0.0 6.4 0.00 0.00 0.00 98 1015.6
20260507031801 23 0 1.6 6.4 0.00 0.00 0.00 98 1015.7
20260507031233 23 0 1.6 6.4 0.00 0.00 0.00 98 1015.7
20260507030728 23 0 1.6 6.4 0.00 0.00 0.00 98 1015.8
20260507030225 23 46 0.0 4.8 0.00 0.00 0.00 98 1015.8
20260507025728 23 50 0.0 4.8 0.00 0.00 0.00 98 1015.8
20260507025223 23 50 0.0 3.2 0.00 0.00 0.00 98 1015.8
20260507024722 23 46 0.0 3.2 0.00 0.00 0.00 98 1015.9
20260507024219 23 46 0.0 1.6 0.00 0.00 0.00 98 1015.9
20260507023942 23 46 0.0 0.0 0.00 0.00 0.00 98 1015.9
20260507023216 23 46 0.0 0.0 0.00 0.00 0.00 98 1016.0
20260507022713 23 46 0.0 0.0 0.00 0.00 0.00 98 1016.0
20260507022212 23 46 0.0 1.6 0.00 0.00 0.00 98 1016.1
20260507021710 23 46 0.0 1.6 0.00 0.00 0.00 98 1016.1
20260507021210 23 46 0.0 0.0 0.00 0.00 0.00 97 1016.1
20260507020708 23 46 0.0 0.0 0.00 0.00 0.00 97 1016.1
20260507020205 23 46 0.0 0.0 0.00 0.00 0.00 97 1016.1
20260507015701 23 46 0.0 3.2 0.00 0.00 0.00 97 1016.1
20260507015202 23 46 0.0 3.2 0.00 0.00 0.00 97 1016.2
20260507014655 23 46 0.0 3.2 0.00 0.00 0.00 97 1016.2
20260507014411 23 46 0.0 3.2 0.00 0.00 0.00 97 1016.3
20260507013649 23 43 0.0 3.2 0.00 0.00 0.00 97 1016.3
20260507013634 23 43 0.0 3.2 0.00 0.00 0.00 97 1016.2
20260507012910 23 43 0.0 3.2 0.00 0.00 0.00 97 1016.3
20260507012144 23 43 0.0 3.2 0.00 0.00 0.00 97 1016.3
20260507011643 23 43 0.0 3.2 0.00 0.00 0.00 97 1016.2
20260507011146 23 43 0.0 6.4 0.00 0.00 0.00 97 1016.4
20260507010638 23 43 0.0 6.4 0.00 0.00 0.00 97 1016.4
20260507010413 23 23 0.0 3.2 0.00 0.00 0.00 97 1016.4
20260507005650 23 23 0.0 3.2 0.00 0.00 0.00 97 1016.3
20260507005410 23 23 0.0 4.8 0.00 0.00 0.00 96 1016.4
20260507004631 23 23 0.0 4.8 0.00 0.00 0.00 96 1016.4
20260507004111 23 0 0.0 0.0 0.00 0.00 0.00 96 1016.6
20260507003546 23 0 0.0 0.0 0.00 0.00 0.00 96 1016.5
20260507003036 23 0 0.0 0.0 0.00 0.00 0.00 96 1016.5
20260507002530 23 0 0.0 3.2 0.00 0.00 0.00 96 1016.6
20260507002351 23 0 1.6 4.8 0.00 0.00 0.00 96 1016.7
20260507002322 23 0 1.6 4.8 0.00 0.00 0.00 96 1016.8
20260507001024 23 0 1.6 4.8 0.00 0.00 0.00 96 1016.7
20260507000521 23 0 1.6 4.8 0.00 0.00 0.00 96 1016.7
20260507000018 23 350 0.0 3.2 0.00 0.00 0.00 96 1016.8
20260506235517 23 350 0.0 3.2 0.00 0.00 0.00 96 1016.8
20260506235019 23 350 0.0 4.8 0.00 0.00 0.00 96 1016.9
20260506234518 23 350 0.0 4.8 0.00 0.00 0.00 96 1016.9
20260506234016 23 345 0.0 3.2 0.00 0.00 0.00 96 1016.8
20260506233520 23 345 0.0 1.6 0.00 0.00 0.00 96 1016.7
20260506232954 23 345 0.0 4.8 0.00 0.00 0.00 96 1016.7
20260506232427 23 345 0.0 4.8 0.00 0.00 0.00 96 1016.7
20260506231859 23 12 0.0 3.2 0.00 0.00 0.00 96 1016.6
20260506231332 23 12 1.6 4.8 0.00 0.00 0.00 96 1016.6
20260506230806 23 12 1.6 4.8 0.00 0.00 0.00 97 1016.5
20260506230239 23 13 1.6 4.8 0.00 0.00 0.00 96 1016.6
20260506225939 23 13 1.6 4.8 0.00 0.00 0.00 97 1016.5
20260506225143 23 10 0.0 3.2 0.00 0.00 0.00 97 1016.5
20260506224618 23 29 0.0 4.8 0.00 0.00 0.00 97 1016.5
20260506224049 23 29 1.6 6.4 0.00 0.00 0.00 97 1016.5
20260506223523 23 22 1.6 6.4 0.00 0.00 0.00 96 1016.4
20260506223011 23 6 3.2 8.0 0.00 0.00 0.00 97 1016.5
20260506222509 23 8 3.2 8.0 0.00 0.00 0.00 96 1016.5
20260506222011 23 355 3.2 6.4 0.00 0.00 0.00 96 1016.4
20260506221509 23 0 1.6 4.8 0.00 0.00 0.00 97 1016.4
20260506221011 23 355 1.6 6.4 0.00 0.00 0.00 97 1016.3
20260506220515 23 350 3.2 6.4 0.00 0.00 0.00 96 1016.2
20260506220012 23 327 1.6 4.8 0.00 0.00 0.00 97 1016.2
20260506215509 23 337 0.0 3.2 0.00 0.00 0.00 97 1016.2
20260506215009 23 337 1.6 4.8 0.00 0.00 0.00 97 1016.1
20260506214740 23 337 1.6 4.8 0.00 0.00 0.00 97 1016.0
20260506214235 23 335 0.0 3.2 0.00 0.00 0.00 97 1016.1
20260506213510 23 335 0.0 3.2 0.00 0.00 0.00 97 1016.2
20260506213007 23 335 0.0 4.8 0.00 0.00 0.00 97 1016.2
20260506212510 23 335 0.0 4.8 0.00 0.00 0.00 97 1016.1
20260506212004 23 335 1.6 4.8 0.00 0.00 0.00 97 1016.0
20260506211506 23 335 1.6 4.8 0.00 0.00 0.00 97 1016.1
20260506211006 23 334 1.6 8.0 0.00 0.00 0.00 97 1016.1
20260506210506 23 0 1.6 8.0 0.00 0.00 0.00 96 1016.1
20260506210007 24 350 1.6 6.4 0.00 0.00 0.00 96 1016.1
20260506205507 24 350 1.6 6.4 0.00 0.00 0.00 97 1016.0
20260506205005 24 350 1.6 6.4 0.00 0.00 0.00 96 1016.0
20260506204509 24 350 1.6 6.4 0.00 0.00 0.00 96 1015.8
20260506204006 24 350 1.6 4.8 0.00 0.00 0.00 96 1015.8
20260506203507 24 350 1.6 4.8 0.00 0.00 0.00 96 1015.7
20260506203005 24 350 1.6 4.8 0.00 0.00 0.00 96 1015.6
20260506202506 24 350 1.6 6.4 0.00 0.00 0.00 95 1015.6
20260506202007 24 350 1.6 6.4 0.00 0.00 0.00 95 1015.6
20260506201509 24 350 1.6 4.8 0.00 0.00 0.00 95 1015.6
20260506200959 25 350 1.6 4.8 0.00 0.00 0.00 95 1015.8
20260506200500 25 350 1.6 6.4 0.00 0.00 0.00 95 1015.7
20260506195959 25 350 1.6 6.4 0.00 0.00 0.00 95 1015.7
20260506195455 25 350 1.6 6.4 0.00 0.00 0.00 95 1015.7
20260506194957 24 350 1.6 6.4 0.00 0.00 0.00 95 1015.8
20260506194457 24 350 1.6 8.0 0.00 0.00 0.00 95 1015.9
20260506193951 24 350 1.6 8.0 0.00 0.00 0.00 95 1015.8
20260506193450 24 345 3.2 8.0 0.00 0.00 0.00 95 1015.8
20260506192945 24 328 3.2 8.0 0.00 0.00 0.00 95 1015.9
20260506192445 24 339 4.8 9.7 0.00 0.00 0.00 95 1015.9
20260506191947 24 343 3.2 9.7 0.00 0.00 0.00 95 1015.9
20260506191445 25 10 3.2 8.0 0.00 0.00 0.00 95 1015.9
20260506190943 25 6 3.2 8.0 0.00 0.00 0.00 95 1015.9
20260506190654 25 350 3.2 8.0 0.00 0.00 0.00 95 1016.0
20260506190157 25 355 1.6 4.8 0.00 0.00 0.00 95 1016.0
20260506185428 25 355 1.6 6.4 0.00 0.00 0.00 95 1016.1
20260506184927 25 355 3.2 6.4 0.00 0.00 0.00 95 1016.1
20260506184426 25 342 3.2 9.7 0.00 0.00 0.00 95 1016.2
20260506183918 25 0 3.2 9.7 0.00 0.00 0.00 95 1016.1
20260506183418 25 10 3.2 8.0 0.00 0.00 0.00 95 1016.1
20260506182919 25 355 3.2 8.0 0.00 0.00 0.00 95 1016.2
20260506182641 25 350 4.8 8.0 0.00 0.00 0.00 94 1016.3
20260506181916 25 355 3.2 8.0 0.00 0.00 0.00 94 1016.3
20260506181645 25 350 3.2 8.0 0.00 0.00 0.00 95 1016.2
20260506180913 25 6 3.2 8.0 0.00 0.00 0.00 95 1016.4
20260506180412 25 328 3.2 8.0 0.00 0.00 0.00 95 1016.4
20260506175910 25 355 3.2 8.0 0.00 0.00 0.00 95 1016.4
20260506175412 25 337 3.2 8.0 0.00 0.00 0.00 95 1016.4
20260506174850 25 0 3.2 9.7 0.00 0.00 0.00 95 1016.5
20260506174346 25 333 3.2 9.7 0.00 0.00 0.00 95 1016.5
20260506173849 25 350 1.6 9.7 0.00 0.00 0.00 95 1016.6
20260506173345 25 350 3.2 9.7 0.00 0.00 0.00 95 1016.6
20260506172844 24 340 4.8 9.7 0.00 0.00 0.00 95 1016.6
20260506172339 25 355 4.8 9.7 0.00 0.00 0.00 95 1016.7
20260506171836 25 355 4.8 12.9 0.00 0.00 0.00 95 1016.7
20260506171335 25 350 6.4 12.9 0.00 0.00 0.00 95 1016.7
20260506170831 25 355 6.4 19.3 0.00 0.00 0.00 95 1016.8